Miscellaneous Local Product
Issued by NWS North Platte, NE

Home | Current Version | Previous Version | Text Only | Print | Product List | Glossary On
Versions: 1 2 3 4 5 6 7 8 9 10 11 12 13 14 15 16 17 18 19 20 21 22 23 24 25 26 27 28 29 30 31 32 33 34 35 36 37 38 39 40 41 42 43 44 45 46 47 48 49 50
463
AXUS43 KLBF 282310
MISLBF


WESTERN AND NORTH CENTRAL NEBRASKA HOURLY WEATHER ROUNDUP
NATIONAL WEATHER SERVICE NORTH PLATTE NE
600 PM CDT SUN MAY 28 2017

NOTE: "FAIR" INDICATES FEW OR NO CLOUDS BELOW 12,000 FEET WITH NO
SIGNIFICANT WEATHER AND/OR OBSTRUCTIONS TO VISIBILITY.

NOTE: STATIONS NOT REPORTING VARIABLES SUCH AS SKY/WEATHER OR
PRESSURE ARE PROVIDED BY RAWS AND APRS NETWORKS AND ARE NOT UNDER
NATIONAL WEATHER SERVICE QUALITY CONTROL.

...OBSERVATIONS IN AND NEAR THE EASTERN PANHANDLE OF NEBRASKA...

CITY           SKY/WX    TMP DP  RH WIND       PRES   REMARKS
PINE RIDGE     MOSUNNY   64  48  56 W9        30.07S
GORDON         FAIR      64  47  54 W9        30.07S
CHADRON        LGT RAIN  59  48  67 W13G24    30.14R
ALLIANCE       CLOUDY    62  41  46 N21       30.11R
SIDNEY         SUNNY     71  42  35 NW9       30.13F
CRESCENT LAKE    N/A     69  39  34 N14G23      N/A
$$

...OBSERVATIONS IN NORTHERN NEBRASKA AND FAR SOUTHERN SOUTH DAKOTA...

CITY           SKY/WX    TMP DP  RH WIND       PRES   REMARKS
WINNER         FAIR      75  37  25 NW14G22   29.93F
VALENTINE      PTSUNNY   75  35  23 NW14      29.99F
THEDFORD       MOSUNNY   72  40  31 NW12      30.03S
AINSWORTH      MOSUNNY   74  35  24 NW18      30.00F
O`NEILL        PTSUNNY   75  33  21 NW15      29.96F
ORD            MOSUNNY   76  36  23 NW15G24   29.97F
BROKEN BOW     SUNNY     77  38  24 NW10      30.00F
VALENTINE NWR    N/A     72  34  25 NW12G23     N/A
HALSEY           N/A     78  36  22 W8G16       N/A
BUTTE            N/A     75  41  30 W9G16       N/A
CHAMBERS         N/A     77  44  30 W3          N/A
EWING            N/A     77  41  27 W12         N/A
$$

...OBSERVATIONS IN SOUTHWEST NEBRASKA AND FAR NORTHEAST COLORADO...

CITY           SKY/WX    TMP DP  RH WIND       PRES   REMARKS
WRAY           FAIR      79  34  19 NW12      30.10F
IMPERIAL       MOSUNNY   77  36  22 W14G23    30.07F
OGALLALA       PTSUNNY   76  39  25 NW14G21   30.07S
NORTH PLATTE   MOSUNNY   77  50  38 N8        30.03F
MCCOOK         MOSUNNY   78  40  25 NW17G23   30.03F
LEXINGTON      PTSUNNY   76  42  29 W6        30.03F
STAPLETON        N/A     75  50  41 CALM        N/A
GOTHENBURG       N/A     75  40  28 NW9         N/A
CALLAWAY         N/A     74  43  32 N15         N/A
$$

...OBSERVATIONS IN CENTRAL LINCOLN COUNTY AREA...

CITY           SKY/WX    TMP DP  RH WIND       PRES   REMARKS
N.P. AIRPORT   MOSUNNY   77  50  38 N8        30.03F
N.P. DOWNTOWN    N/A     75  47  37 N5          N/A
N.P. SOUTHEAST   N/A     76  46  33 N5G13       N/A
N.P. HILLCREST   N/A     74  44  33 NW9         N/A
$$

...SOME OBSERVATIONS FROM AROUND THE REGION...

CITY           SKY/WX    TMP DP  RH WIND       PRES   REMARKS
DENVER         MOSUNNY   69  34  27 VRB5      30.21F
LIMON          SUNNY     68  33  27 N7        30.22F
ASPEN          CLOUDY    64  20  18 N3        30.27F
LARAMIE        CLOUDY    63  28  26 NW14G25   30.27S
CASPER         PTSUNNY   62  41  46 NE13      30.22F
CHEYENNE       PTSUNNY   64  36  35 NE10      30.22F
SCOTTSBLUFF    LGT RAIN  59  47  64 N23G38    30.17R
GRAND ISLAND   MOSUNNY   78  39  24 N17       29.98S
OMAHA          MOSUNNY   79  39  23 N23G30    29.89R
SIOUX FALLS    MOSUNNY   72  41  32 NW17      29.84F
PIERRE         CLOUDY    74  37  26 W18       29.89F
RAPID CITY     LGT RAIN  54  48  80 NW13      30.08R
BISMARCK       MOSUNNY   72  36  26 NW30G40   29.87R
KANSAS CITY    MOSUNNY   79  49  34 W12       29.92F
HILL CITY      MOSUNNY   81  44  27 NW9       30.04F
WICHITA        MOSUNNY   82  46  28 NW12      29.99F
DODGE CITY     SUNNY     78  39  24 N10       30.08F
OKLAHOMA CITY  MOSUNNY   82  46  28 N13       30.00F
DALLAS         CLOUDY    80  69  69 N9        29.91F
AMARILLO       SUNNY     73  36  25 N12G21    30.15F
$$




USA.gov is the U.S. government's official web portal to all federal, state and local government web resources and services.